Location: Boiro
(42.6475°N, 8.8834°W)
Time: 02:28:58
(UTC+01:00)

Vanguard 3 - Pass Details

Date: 05 December 2021
Orbit: 508 x 3260 km, 33.3° (Epoch: 19 January)

Event Time Altitude Azimuth Distance (km) Brightness Sun altitude
Exits shadow 02:07:51 17° 111° (ESE) 5,622 11.3 -67.9°
Drops below altitude 10° 02:13:21 10° 96° (E) 6,148 11.6 -67.5°
Sets 02:19:53 0° 82° (E) 6,980 12.1 -66.8°
